Weather History for Ozona, TX

Change the Weather History Date:

Friday, January 24, 2014

  Actual Average Record
Temperature  
Mean Temperature 34 °F -  
Max Temperature 44 °F 61 °F 78 °F (2013)
Min Temperature 24 °F 29 °F 24 °F (2014)
Degree Days  
Heating Degree Days 31    
Moisture  
Dew Point 3 °F    
Average Humidity 31    
Maximum Humidity 55    
Minimum Humidity 22    
Precipitation  
Precipitation 0.00 in - - ()
Sea Level Pressure  
Sea Level Pressure 30.54 in    
Wind  
Wind Speed 5 mph (West)    
Max Wind Speed 9 mph    
Max Gust Speed -    
Visibility 10 miles    
Events      
Averages and records for this station are not official NWS values.
T = Trace of Precipitation, MM = Missing Value Source: NWS Daily Summary

Daily Weather History Graph

Daily Weather History Graph

Search for Another Location

Airport:

Trip Planner

Search our weather history database for the weather conditions in past years. The results will help you decide how hot, cold, wet, or windy it might be!

Date:

Astronomy

Jan. 24, 2014 Rise Set
Actual Time 7:40 AM CST 6:13 PM CST
Civil Twilight 7:14 AM CST 6:39 PM CST
Nautical Twilight 6:45 AM CST 7:08 PM CST
Astronomical Twilight 6:16 AM CST 7:37 PM CST
Moon 1:15 AM CST (1/24) 12:29 PM CST (1/24)
Length of Visible Light 11h 24m
Length of Day
10h 33m
Last Quarter, 44% of the Moon is Illuminated
Jan 24
Last Quarter
Jan 30
New
Feb 6
First Quarter
Feb 14
Full
Feb 22
Last Quarter

Hourly Weather History & Observations

Time (CST) Temp. Windchill Dew Point Humidity Pressure Visibility Wind Dir Wind Speed Gust Speed Precip Events Conditions
12:15 AM 24.8 °F - -9.4 °F 22% 30.70 in 10.0 mi North - - N/A   Scattered Clouds
12:35 AM 24.8 °F - -7.6 °F 24% 30.69 in 10.0 mi North - - N/A   Mostly Cloudy
12:55 AM 24.8 °F - -9.4 °F 22% 30.70 in 10.0 mi North - - N/A   Mostly Cloudy
1:15 AM 24.8 °F - -9.4 °F 22% 30.69 in 10.0 mi North - - N/A   Overcast
1:35 AM 24.8 °F - -7.6 °F 24% 30.69 in 10.0 mi North - - N/A   Overcast
1:55 AM 26.6 °F - -7.6 °F 22% 30.70 in 10.0 mi North - - N/A   Overcast
2:15 AM 24.8 °F - -7.6 °F 24% 30.69 in 10.0 mi North - - N/A   Overcast
2:35 AM 26.6 °F - -7.6 °F 22% 30.69 in 10.0 mi North - - N/A   Overcast
2:55 AM 24.8 °F - -7.6 °F 24% 30.68 in 10.0 mi North - - N/A   Overcast
3:15 AM 24.8 °F - -7.6 °F 24% 30.68 in 10.0 mi North - - N/A   Overcast
3:35 AM 26.6 °F - -7.6 °F 22% 30.68 in 10.0 mi North - - N/A   Overcast
3:55 AM 26.6 °F - -7.6 °F 22% 30.68 in 10.0 mi North - - N/A   Mostly Cloudy
4:15 AM 26.6 °F - -7.6 °F 22% 30.68 in 10.0 mi North - - N/A   Mostly Cloudy
4:35 AM 26.6 °F - -7.6 °F 22% 30.68 in 10.0 mi North - - N/A   Mostly Cloudy
4:55 AM 26.6 °F 21.2 °F -7.6 °F 22% 30.67 in 10.0 mi North 4.6 mph - N/A   Scattered Clouds
5:15 AM 26.6 °F 17.5 °F -7.6 °F 22% 30.68 in 10.0 mi North 9.2 mph - N/A   Scattered Clouds
5:35 AM 26.6 °F 21.2 °F -7.6 °F 22% 30.67 in 10.0 mi North 4.6 mph - N/A   Scattered Clouds
5:55 AM 26.6 °F 17.5 °F -5.8 °F 24% 30.67 in 10.0 mi NNW 9.2 mph - N/A   Scattered Clouds
6:15 AM 26.6 °F - -5.8 °F 24% 30.67 in 10.0 mi North - - N/A   Mostly Cloudy
6:35 AM 26.6 °F 19.1 °F -5.8 °F 24% 30.66 in 10.0 mi North 6.9 mph - N/A   Overcast
6:55 AM 26.6 °F 19.1 °F -4.0 °F 26% 30.67 in 10.0 mi North 6.9 mph - N/A   Overcast
7:15 AM 26.6 °F 19.1 °F -4.0 °F 26% 30.66 in 10.0 mi North 6.9 mph - N/A   Overcast
7:35 AM 26.6 °F 19.1 °F -4.0 °F 26% 30.65 in 10.0 mi North 6.9 mph - N/A   Overcast
7:55 AM 26.6 °F 22.6 °F -4.0 °F 26% 30.66 in 10.0 mi North 3.5 mph - N/A   Overcast
8:15 AM 26.6 °F 18.2 °F -4.0 °F 26% 30.66 in 10.0 mi North 8.1 mph - N/A   Overcast
8:35 AM 26.6 °F 18.2 °F -4.0 °F 26% 30.66 in 10.0 mi NNW 8.1 mph - N/A   Overcast
8:55 AM 26.6 °F 19.1 °F -4.0 °F 26% 30.66 in 10.0 mi North 6.9 mph - N/A   Overcast
9:15 AM 26.6 °F 20.0 °F -4.0 °F 26% 30.65 in 10.0 mi NNW 5.8 mph - N/A   Overcast
9:35 AM 26.6 °F - -2.2 °F 29% 30.66 in 10.0 mi Calm Calm - N/A   Overcast
9:55 AM 26.6 °F 22.6 °F -2.2 °F 29% 30.66 in 10.0 mi NW 3.5 mph - N/A   Overcast
10:15 AM 28.4 °F 24.6 °F -2.2 °F 27% 30.65 in 10.0 mi NW 3.5 mph - N/A   Overcast
10:35 AM 28.4 °F - -4.0 °F 25% 30.63 in 10.0 mi Calm Calm - N/A   Overcast
10:55 AM 30.2 °F 25.4 °F -2.2 °F 25% 30.63 in 10.0 mi WNW 4.6 mph - N/A   Mostly Cloudy
11:15 AM 32.0 °F - -2.2 °F 23% 30.62 in 10.0 mi Calm Calm - N/A   Overcast
11:35 AM 32.0 °F 27.5 °F -2.2 °F 23% 30.61 in 10.0 mi WNW 4.6 mph - N/A   Overcast
11:55 AM 32.0 °F - -2.2 °F 23% 30.59 in 10.0 mi Calm Calm - N/A   Overcast
12:15 PM 33.8 °F 28.6 °F -2.2 °F 22% 30.57 in 10.0 mi SSW 5.8 mph - N/A   Overcast
12:35 PM 35.6 °F 31.7 °F -0.4 °F 22% 30.55 in 10.0 mi SW 4.6 mph - N/A   Overcast
12:55 PM 35.6 °F 30.7 °F 1.4 °F 24% 30.54 in 10.0 mi WSW 5.8 mph - N/A   Overcast
1:15 PM 35.6 °F - 3.2 °F 26% 30.52 in 10.0 mi Calm Calm - N/A   Overcast
1:35 PM 35.6 °F 30.7 °F 5.0 °F 28% 30.51 in 10.0 mi West 5.8 mph - N/A   Overcast
1:55 PM 37.4 °F - 8.6 °F 30% 30.49 in 10.0 mi Calm Calm - N/A   Overcast
2:15 PM 37.4 °F - 8.6 °F 30% 30.48 in 10.0 mi Calm Calm - N/A   Overcast
2:35 PM 39.2 °F 35.0 °F 10.4 °F 31% 30.47 in 10.0 mi WSW 5.8 mph - N/A   Overcast
2:55 PM 41.0 °F 39.0 °F 8.6 °F 26% 30.45 in 10.0 mi NW 3.5 mph - N/A   Overcast
3:15 PM 42.8 °F 40.1 °F 10.4 °F 27% 30.44 in 10.0 mi West 4.6 mph - N/A   Scattered Clouds
3:35 PM 42.8 °F - 10.4 °F 27% 30.42 in 10.0 mi Calm Calm - N/A   Clear
3:55 PM 42.8 °F 38.0 °F 12.2 °F 29% 30.41 in 10.0 mi WSW 8.1 mph - N/A   Clear
4:15 PM 42.8 °F 38.6 °F 14.0 °F 31% 30.41 in 10.0 mi West 6.9 mph - N/A   Clear
4:35 PM 44.6 °F 40.7 °F 14.0 °F 29% 30.40 in 10.0 mi WSW 6.9 mph - N/A   Clear
4:55 PM 42.8 °F 40.1 °F 14.0 °F 31% 30.40 in 10.0 mi WSW 4.6 mph - N/A   Clear
5:15 PM 42.8 °F 38.0 °F 12.2 °F 29% 30.39 in 10.0 mi SSW 8.1 mph - N/A   Clear
5:35 PM 42.8 °F 38.6 °F 12.2 °F 29% 30.39 in 10.0 mi SW 6.9 mph - N/A   Clear
5:55 PM 41.0 °F 37.1 °F 12.2 °F 31% 30.37 in 10.0 mi SSW 5.8 mph - N/A   Clear
6:15 PM 41.0 °F 36.4 °F 14.0 °F 33% 30.37 in 10.0 mi SSW 6.9 mph - N/A   Clear
6:35 PM 37.4 °F 32.8 °F 14.0 °F 38% 30.37 in 10.0 mi SW 5.8 mph - N/A   Clear
6:55 PM 37.4 °F 33.8 °F 14.0 °F 38% 30.38 in 10.0 mi SW 4.6 mph - N/A   Clear
7:15 PM 35.6 °F 31.7 °F 14.0 °F 41% 30.38 in 10.0 mi SW 4.6 mph - N/A   Clear
7:35 PM 33.8 °F 29.6 °F 14.0 °F 44% 30.38 in 10.0 mi SW 4.6 mph - N/A   Clear
7:55 PM 33.8 °F 29.6 °F 14.0 °F 44% 30.38 in 10.0 mi SW 4.6 mph - N/A   Clear
8:15 PM 32.0 °F 27.5 °F 14.0 °F 48% 30.37 in 10.0 mi SSW 4.6 mph - N/A   Clear
8:35 PM 32.0 °F - 14.0 °F 48% 30.37 in 10.0 mi Calm Calm - N/A   Clear
8:55 PM 32.0 °F - 14.0 °F 48% 30.37 in 10.0 mi Calm Calm - N/A   Clear
9:15 PM 32.0 °F - 14.0 °F 48% 30.36 in 10.0 mi Calm Calm - N/A   Clear
9:35 PM 30.2 °F - 14.0 °F 51% 30.36 in 10.0 mi Calm Calm - N/A   Clear
9:55 PM 28.4 °F - 14.0 °F 55% 30.36 in 10.0 mi Calm Calm - N/A   Clear
10:15 PM 30.2 °F - 14.0 °F 51% 30.36 in 10.0 mi Calm Calm - N/A   Clear
10:35 PM 28.4 °F - 14.0 °F 55% 30.35 in 10.0 mi Calm Calm - N/A   Clear
10:55 PM 28.4 °F - 14.0 °F 55% 30.35 in 10.0 mi Calm Calm - N/A   Clear
11:15 PM 28.4 °F - 14.0 °F 55% 30.34 in 10.0 mi Calm Calm - N/A   Clear
11:35 PM 28.4 °F 24.6 °F 14.0 °F 55% 30.35 in 10.0 mi SSW 3.5 mph - N/A   Clear
11:55 PM 28.4 °F 23.3 °F 14.0 °F 55% 30.34 in 10.0 mi SW 4.6 mph - N/A   Clear